Regional Weather Roundup
Issued by NWS

Home | Current Version | Previous Version | Text Only | Print | Product List | Glossary Off
Versions: 1 2 3 4 5 6 7 8 9 10 11 12 13 14 15 16 17 18 19 20 21 22 23 24 25 26 27 28 29 30 31 32 33 34 35 36 37 38 39 40 41 42 43 44 45 46 47 48 49 50

000
ASUS44 KMEG 181010
RWRTN
TENNESSEE HOURLY STATE WEATHER ROUNDUP
NATIONAL WEATHER SERVICE MEMPHIS TN
500 AM CDT WED OCT 18 2017

TNZ002-004-019-021-049-052-054-088>092-181100-
WEST TENNESSEE

CITY           SKY/WX    TMP DP  RH WIND       PRES   REMARKS
MEMPHIS INTL   CLEAR     52  46  80 SE5       30.23S
NWS MEMPHIS      N/A     46 N/A N/A MISG        N/A
JACKSON        CLEAR     40  39  97 CALM      30.25R
SOMERVILLE     CLEAR     45  45 100 CALM      30.23R
COVINGTON      CLEAR     41  39  93 CALM      30.24R
UNION CITY     MOCLDY    39  39 100 CALM      30.24R
BOLIVAR        CLEAR     39  39 100 CALM      30.24R
PARIS          CLEAR     43  43 100 CALM      30.25R
HUNTINGDON     CLEAR     43  41  93 CALM      30.25R
LEXINGTON      CLEAR     39  39 100 CALM      30.26R
SELMER         CLEAR     41  41 100 CALM      30.25R
SAVANNAH       CLEAR     37  37 100 CALM      30.25R
$$

TNZ008-025-027-028-033-062-065-066-181100-
NORTH MIDDLE TENNESSEE

CITY           SKY/WX    TMP DP  RH WIND       PRES   REMARKS
NASHVILLE      CLEAR     43  41  93 CALM      30.28R
PORTLAND       CLEAR     45  43  93 S6        30.27R FOG
CLARKSVILLE    CLEAR     43  41  93 SE3       30.27R FOG
SMYRNA         CLEAR     39  39 100 SE3       30.30R
COOKEVILLE     CLEAR     36  36 100 CALM      30.28R FOG
GALLATIN       CLEAR     39  37  93 CALM      30.31R
CROSSVILLE     CLEAR     40  37  89 CALM      30.30R
$$

TNZ061-075-076-078-094-096-097-181100-
SOUTH MIDDLE TENNESSEE

CITY           SKY/WX    TMP DP  RH WIND       PRES   REMARKS
FAYETTEVILLE   CLEAR     45  43  93 CALM      30.27R
TULLAHOMA        N/A     37  36  93 CALM      30.29R
WINCHESTER     CLEAR     46  43  87 E6          N/A
COLUMBIA       FOG       39  39 100 CALM      30.26R VSB 3/4
SHELBYVILLE    CLEAR     43  43 100 SE3       30.28R FOG
$$

TNZ017-018-042-046-047-181100-
NORTHEAST TENNESSEE

CITY           SKY/WX    TMP DP  RH WIND       PRES   REMARKS
TRI CITIES     CLOUDY    38  38 100 CALM      30.32R
ELIZABETHTON   CLEAR     43  39  87 CALM      30.32S
$$

TNZ012-013-036-069-073-074-181100-
CENTRAL EAST TENNESSEE

CITY           SKY/WX    TMP DP  RH WIND       PRES   REMARKS
KNOXVILLE      CLOUDY    44  44 100 CALM      30.31R FOG
OAK RIDGE      FOG       43  43 100 CALM      30.33R VSB 1/4
DOWNTOWN KNOXV CLOUDY    45  45 100 CALM      30.32R FOG
GATLINBURG     CLEAR     41  41 100 CALM      30.31S
MORRISTOWN     CLEAR     43  39  87 CALM      30.31R
JACKSBORO      PTCLDY    39  39 100 CALM      30.36R
$$

TNZ083-085-099-181100-
SOUTHEAST TENNESSEE

CITY           SKY/WX    TMP DP  RH WIND       PRES   REMARKS
CHATTANOOGA    PTCLDY    45  42  89 CALM      30.32R
DAYTON         FOG       43  43 100 CALM      30.31R VSB 1/2
$$

SKY/WX REPORTED AS FAIR MEANS FEW OR NO CLOUDS BELOW
12 THOUSAND FEET.





USA.gov is the U.S. government's official web portal to all federal, state and local government web resources and services.